EW2821 Weather Reports


Display with metric or nautical units.
time (UTC)temp
F
wind
direction
speed
MPH
gust
MPH
rain 1hr
in
rain 24hr
in
rain mn
in
humidity
%
barometer
mb
20260904210043 82 153 6.0 13.0 0.00 0.00 0.00 78 1014.7
20260904204542 81 123 6.0 12.0 0.00 0.00 0.00 80 1014.9
20260904203040 80 129 8.0 11.0 0.00 0.00 0.00 80 1015.0
20260904201539 80 136 4.0 7.0 0.00 0.00 0.00 86 1015.7
20260904200039 79 145 4.0 7.0 0.00 0.00 0.00 82 1015.7
20260904194538 80 91 4.0 18.0 0.00 0.00 0.00 83 1015.3
20260904193037 85 47 4.0 15.0 0.00 0.00 0.00 74 1015.3
20260904191536 91 255 2.0 6.0 0.00 0.00 0.00 66 1015.2
20260904190035 89 203 4.0 6.0 0.00 0.00 0.00 68 1015.5
20260904184536 86 211 5.0 11.0 0.00 0.00 0.00 76 1015.7
20260904183034 89 264 4.0 11.0 0.00 0.00 0.00 65 1015.8
20260904181537 91 297 6.0 11.0 0.00 0.00 0.00 63 1015.8
20260904180046 91 270 5.0 12.0 0.00 0.00 0.00 60 1016.2
20260904174540 91 277 8.0 11.0 0.00 0.00 0.00 62 1016.5
20260904173037 91 266 3.0 13.0 0.00 0.00 0.00 62 1016.5
20260904171600 91 310 6.0 11.0 0.00 0.00 0.00 62 1016.6
20260904170024 90 276 6.0 10.0 0.00 0.00 0.00 62 1016.9
20260904164521 90 308 5.0 11.0 0.00 0.00 0.00 65 1017.0
20260904163019 90 326 7.0 12.0 0.00 0.00 0.00 66 1017.0
20260904161515 89 297 6.0 12.0 0.00 0.00 0.00 66 1017.0
20260904160016 89 258 7.0 14.0 0.00 0.00 0.00 67 1017.1
20260904154524 88 289 7.0 11.0 0.00 0.00 0.00 69 1017.0
20260904153006 88 283 5.0 11.0 0.00 0.00 0.00 71 1016.9
20260904151600 87 303 6.0 10.0 0.00 0.00 0.00 70 1016.9
20260904150058 86 244 6.0 10.0 0.00 0.00 0.00 74 1016.9
20260904144552 85 271 5.0 8.0 0.00 0.00 0.00 74 1016.8
20260904143047 84 291 5.0 8.0 0.00 0.00 0.00 78 1016.8
20260904141542 83 266 4.0 8.0 0.00 0.00 0.00 79 1016.7
20260904140040 81 259 5.0 10.0 0.00 0.00 0.00 82 1016.7
20260904134542 80 270 2.0 7.0 0.00 0.00 0.00 87 1016.5
20260904133041 77 246 2.0 4.0 0.00 0.00 0.00 91 1016.7
20260904131525 75 173 0.0 2.0 0.00 0.00 0.00 95 1016.7
20260904130022 74 106 0.0 0.0 0.00 0.00 0.00 97 1016.8
20260904124518 73 106 0.0 0.0 0.00 0.00 0.00 97 1016.9
20260904123016 72 106 0.0 0.0 0.00 0.00 0.00 97 1016.6
20260904121512 71 106 0.0 0.0 0.00 0.00 0.00 97 1016.6
20260904120009 70 106 0.0 2.0 0.00 0.00 0.00 97 1016.3
20260904114507 69 106 0.0 0.0 0.00 0.00 0.00 97 1016.1
20260904113008 69 106 0.0 0.0 0.00 0.00 0.00 97 1016.0
20260904111507 69 106 0.0 0.0 0.00 0.00 0.00 97 1015.6
20260904110007 69 106 0.0 0.0 0.00 0.00 0.00 97 1015.5
20260904104502 69 106 0.0 0.0 0.00 0.00 0.00 97 1015.4
20260904103002 69 106 0.0 0.0 0.00 0.00 0.00 96 1015.3
20260904101501 69 106 0.0 0.0 0.00 0.00 0.00 97 1015.2
20260904100001 69 106 0.0 0.0 0.00 0.00 0.00 96 1015.3
20260904094616 69 106 0.0 0.0 0.00 0.00 0.00 96 1015.3
20260904093105 69 106 0.0 0.0 0.00 0.00 0.00 97 1015.3
20260904091600 69 106 0.0 0.0 0.00 0.00 0.00 96 1015.2
20260904090059 69 106 0.0 0.0 0.00 0.00 0.00 96 1015.3
20260904084558 69 106 0.0 0.0 0.00 0.00 0.00 96 1015.1
20260904083101 69 106 0.0 0.0 0.00 0.00 0.00 96 1015.3
20260904081556 69 106 0.0 0.0 0.00 0.00 0.00 96 1015.3
20260904080116 70 106 0.0 0.0 0.00 0.00 0.00 96 1015.4
20260904074605 69 106 0.0 0.0 0.00 0.00 0.00 96 1015.5
20260904073051 69 106 0.0 0.0 0.00 0.00 0.00 96 1015.7
20260904071552 69 106 0.0 0.0 0.00 0.00 0.00 96 1015.9
20260904070047 70 106 0.0 0.0 0.00 0.00 0.00 95 1016.1
20260904064544 70 106 0.0 0.0 0.00 0.00 0.00 95 1016.1
20260904063048 70 106 0.0 0.0 0.00 0.00 0.00 95 1016.2
20260904061543 70 106 0.0 0.0 0.00 0.00 0.00 95 1016.2
20260904060109 70 106 0.0 0.0 0.00 0.00 0.00 95 1016.4
20260904054541 70 106 0.0 0.0 0.00 0.00 0.00 95 1016.4
20260904053126 71 106 0.0 0.0 0.00 0.00 0.00 95 1016.4
20260904051559 71 106 0.0 0.0 0.00 0.00 0.00 94 1016.4
20260904050037 71 106 0.0 0.0 0.00 0.00 0.00 94 1016.4
20260904044549 71 106 0.0 0.0 0.00 0.00 0.00 94 1016.3
20260904043033 72 106 0.0 0.0 0.00 0.00 0.00 93 1016.1
20260904041531 72 106 0.0 0.0 0.00 0.00 0.00 93 1016.2
20260904040026 72 106 0.0 1.0 0.00 0.00 0.00 93 1016.1
20260904034525 72 106 0.0 1.0 0.00 0.00 0.00 92 1016.0
20260904033025 73 106 0.0 0.0 0.00 0.00 0.00 91 1016.0
20260904031524 74 106 0.0 1.0 0.00 0.00 0.00 90 1016.3
20260904030025 74 105 0.0 2.0 0.00 0.00 0.00 89 1016.3
20260904024531 75 95 0.0 3.0 0.00 0.00 0.00 88 1016.6
20260904023023 77 50 0.0 5.0 0.00 0.00 0.00 86 1016.6
20260904021524 78 60 2.0 8.0 0.00 0.00 0.00 86 1016.5
20260904020023 79 334 1.0 4.0 0.00 0.00 0.00 87 1016.5
20260904014522 77 315 3.0 10.0 0.00 0.00 0.00 90 1016.5
20260904013021 76 207 0.0 1.0 0.00 0.00 0.00 91 1016.0
20260904011521 77 207 0.0 0.0 0.00 0.00 0.00 90 1015.8
20260904010021 78 207 0.0 2.0 0.00 0.00 0.00 88 1015.7
20260904004520 79 207 0.0 0.0 0.00 0.00 0.00 87 1015.7
20260904003019 80 207 0.0 0.0 0.00 0.00 0.00 86 1015.5
20260904001526 82 207 0.0 0.0 0.00 0.00 0.00 84 1015.6
20260904000019 83 207 0.0 1.0 0.00 0.00 0.00 81 1015.6
20260903234518 86 207 0.0 1.0 0.00 0.00 0.00 76 1015.6
20260903233017 88 215 0.0 3.0 0.00 0.00 0.00 70 1015.4
20260903231517 89 215 2.0 7.0 0.00 0.00 0.00 69 1015.1
20260903230019 89 205 3.0 5.0 0.00 0.00 0.00 66 1015.1
20260903224515 90 216 3.0 5.0 0.00 0.00 0.00 66 1015.1
20260903223024 90 216 2.0 5.0 0.00 0.00 0.00 65 1015.2
20260903221515 91 214 3.0 6.0 0.00 0.00 0.00 64 1015.0
20260903220016 91 244 2.0 10.0 0.00 0.00 0.00 64 1015.0
20260903214513 91 251 2.0 12.0 0.00 0.00 0.00 62 1014.8
20260903213020 91 262 3.0 9.0 0.00 0.00 0.00 63 1014.8
20260903211513 91 240 5.0 12.0 0.00 0.00 0.00 60 1014.7